Total_Precipitation_Accumulation
2.80 2.98 2.82 2.62 2.67 2.76 3.24 3.65 3.82 3.38 3.08 2.91 2.71 2.36 2.30 2.32 2.48 2.21 2.17 2.08 1.79 1.73 1.69 1.60 1.57 1.66 1.83 1.96 2.05 2.19 2.33 2.54 2.81 3.03 3.22 3.46 3.61 3.72
2.91 3.03 3.01 2.77 2.81 2.84 3.17 3.55 3.80 3.91 3.37 2.95 2.91 2.55 2.33 2.13 2.36 2.17 2.07 2.07 1.82 1.68 1.63 1.55 1.47 1.44 1.44 1.50 1.56 1.62 1.73 1.91 2.11 2.29 2.44 2.63 2.81 3.00
2.59 2.72 2.86 3.02 3.00 3.03 3.26 3.43 3.68 3.97 3.52 3.15 3.23 3.02 2.72 2.45 2.30 2.25 2.05 1.94 1.82 1.74 1.57 1.52 1.45 1.37 1.35 1.36 1.37 1.43 1.50 1.61 1.77 1.93 2.07 2.15 2.19 2.34
2.61 2.76 2.65 2.84 2.90 2.91 3.12 3.34 3.58 3.86 3.70 3.49 3.58 3.51 3.23 2.85 2.69 2.54 2.17 1.99 1.89 1.89 1.68 1.53 1.46 1.41 1.33 1.34 1.35 1.34 1.37 1.42 1.52 1.64 1.77 1.90 2.00 2.04
2.44 2.47 2.41 2.60 2.59 2.76 2.86 3.01 3.25 3.52 3.64 3.51 3.53 3.60 3.33 3.09 2.96 2.57 2.33 2.34 1.99 2.01 1.99 1.71 1.52 1.45 1.42 1.37 1.34 1.36 1.37 1.38 1.42 1.51 1.67 1.80 1.94 2.05
2.08 2.06 2.06 2.16 2.30 2.61 2.70 2.78 2.95 3.20 3.33 3.35 3.40 3.44 3.31 3.25 3.25 2.88 2.70 2.59 2.31 1.97 2.00 1.77 1.68 1.60 1.50 1.42 1.39 1.41 1.48 1.48 1.49 1.56 1.67 1.77 1.85 1.94
1.90 1.74 1.67 1.77 1.93 2.14 2.05 2.31 2.56 2.75 2.86 3.02 3.17 3.37 3.23 3.29 3.15 3.05 2.86 2.78 2.67 2.32 2.23 1.90 1.75 1.62 1.50 1.42 1.39 1.41 1.52 1.60 1.62 1.66 1.73 1.82 1.92 2.01
1.85 1.73 1.60 1.60 1.65 1.73 1.75 1.85 2.08 2.28 2.46 2.76 2.94 3.10 2.97 2.97 3.16 3.14 3.05 2.88 2.77 2.61 2.71 2.53 2.24 2.06 1.75 1.44 1.39 1.38 1.43 1.60 1.70 1.72 1.79 1.88 1.98 2.08
1.93 1.93 1.63 1.34 1.50 1.47 1.55 1.57 1.64 1.80 2.05 2.41 2.58 2.60 2.78 2.85 3.17 3.20 3.32 3.19 3.00 2.89 3.06 3.00 2.82 2.63 1.95 1.73 1.70 1.44 1.34 1.35 1.47 1.59 1.66 1.80 1.90 1.97
1.82 1.79 1.72 1.60 1.51 1.50 1.53 1.51 1.38 1.47 1.67 1.73 1.89 2.17 2.68 3.02 3.09 3.14 3.42 3.38 3.14 3.02 3.09 3.17 2.92 2.81 2.26 1.84 1.67 1.40 1.25 1.24 1.29 1.39 1.51 1.64 1.81 1.96
1.67 1.60 1.56 1.56 1.62 1.50 1.54 1.51 1.41 1.38 1.45 1.56 1.66 1.88 2.21 2.58 2.83 2.90 3.00 3.15 3.14 3.08 3.12 3.23 3.12 3.03 2.95 2.57 1.97 1.65 1.34 1.23 1.25 1.30 1.35 1.43 1.59 1.81
1.61 1.50 1.39 1.34 1.41 1.39 1.48 1.58 1.46 1.39 1.46 1.47 1.46 1.56 1.74 1.95 2.12 2.11 2.29 2.50 2.59 2.74 2.71 2.99 3.22 3.32 3.51 3.34 2.74 2.15 1.78 1.55 1.40 1.33 1.35 1.41 1.54 1.46
1.55 1.41 1.33 1.28 1.23 1.22 1.27 1.37 1.43 1.53 1.60 1.60 1.63 1.62 1.77 1.91 1.97 1.99 2.13 2.29 2.30 2.23 2.21 2.46 2.72 2.99 3.26 3.38 3.17 2.69 2.30 2.04 1.76 1.58 1.51 1.48 1.52 1.47
1.62 1.56 1.51 1.36 1.24 1.19 1.14 1.20 1.34 1.38 1.48 1.59 1.60 1.59 1.65 1.80 1.94 2.07 2.18 2.30 2.30 2.22 2.27 2.44 2.54 2.56 2.52 2.53 2.61 2.48 2.32 2.20 2.14 2.03 1.86 1.86 1.76 1.75
1.64 1.65 1.53 1.39 1.31 1.27 1.30 1.38 1.37 1.35 1.50 1.64 1.64 1.60 1.65 1.76 1.90 2.03 2.12 2.23 2.28 2.17 2.08 2.14 2.22 2.37 2.52 2.33 2.14 2.06 2.10 2.16 2.26 2.42 2.43 2.27 2.09 2.01
1.71 1.71 1.58 1.45 1.35 1.31 1.31 1.29 1.28 1.37 1.49 1.51 1.58 1.68 1.71 1.77 1.83 1.89 1.99 2.04 2.05 1.97 1.97 1.98 2.06 2.22 2.29 2.29 2.20 1.99 1.98 2.12 2.18 2.35 2.57 2.64 2.56 2.41
2.11 2.00 1.90 1.74 1.57 1.51 1.46 1.45 1.49 1.55 1.55 1.60 1.68 1.70 1.64 1.63 1.68 1.77 1.95 2.02 1.90 1.74 1.80 1.93 2.08 2.16 2.10 2.17 2.20 2.01 1.96 1.95 2.02 2.21 2.39 2.40 2.31 2.29
2.09 1.99 2.06 2.04 1.92 1.86 1.79 1.74 1.72 1.69 1.68 1.69 1.68 1.67 1.64 1.61 1.69 1.79 1.96 2.04 1.95 1.77 1.76 1.89 2.08 2.25 2.28 2.16 1.99 1.96 1.95 1.94 1.99 2.19 2.26 2.20 2.03 1.88
2.03 2.04 2.09 2.11 2.06 2.04 2.03 1.93 1.84 1.83 1.89 1.85 1.80 1.78 1.78 1.76 1.85 1.91 1.96 1.98 1.93 1.81 1.76 1.89 2.02 2.12 2.16 2.03 1.88 1.77 1.84 1.91 2.10 2.16 2.15 2.09 1.97 1.85
1.91 2.06 2.09 2.08 2.06 2.03 1.99 1.95 1.90 1.94 1.98 1.89 1.82 1.80 1.82 1.83 1.89 1.92 1.96 1.97 1.93 1.92 1.91 1.89 1.93 2.02 2.04 2.03 1.99 1.87 1.70 1.79 1.96 2.01 1.96 1.93 1.88 1.86
2.00 2.10 2.09 2.04 2.00 2.01 2.03 2.01 1.95 1.95 1.99 1.99 1.90 1.91 1.94 1.97 1.97 1.96 2.03 2.05 1.96 1.88 1.83 1.71 1.77 2.08 2.29 2.43 2.22 1.97 2.00 2.01 2.02 1.96 1.94 1.97 1.96 1.86
1.88 1.98 1.97 1.91 1.90 1.95 1.99 2.01 2.01 2.02 2.07 2.10 2.00 1.93 1.97 2.04 1.96 1.98 2.04 2.04 1.96 1.89 1.84 1.82 2.00 2.20 2.34 2.49 2.31 2.21 2.34 2.36 2.35 2.30 2.22 2.10 1.92 1.78
1.91 1.87 1.82 1.76 1.78 1.85 1.92 2.02 2.08 2.11 2.10 2.09 2.06 2.00 1.99 2.05 2.01 2.03 2.05 2.08 2.11 2.11 2.12 2.14 2.24 2.30 2.22 2.23 2.30 2.28 2.32 2.44 2.44 2.36 2.27 2.22 1.94 1.66